Probability
0 0 0 0 0 0 0 0 0 0 0 0 0 0 0 0 0 0 0 0 0 0 0 0 0 0 0 0 0 0 0 0 0 0 0 0 0 0 0 0 0 0 0
0 0 0 0 0 0 0 0 0 0 0 0 0 0 0 0 0 0 0 0 0 0 0 0 0 0 0 0 0 0 0 0 0 0 0 0 0 0 0 0 0 0 0
0 0 0 0 0 0 0 0 0 0 0 0 0 0 0 0 0 0 0 0 0 0 0 0 0 0 0 0 0 0 0 0 0 0 0 0 0 0 0 0 0 0 0
0 0 0 0 0 0 0 0 0 0 0 0 0 0 0 0 0 0 0 0 0 0 0 0 0 0 0 0 0 0 0 0 0 0 0 0 0 0 0 0 0 0 0
0 0 0 0 0 0 0 0 0 0 0 0 0 0 0 0 0 0 0 0 0 0 0 0 0 0 0 0 0 0 0 0 0 0 0 0 0 0 0 0 0 0 0
0 0 0 0 0 0 0 0 0 0 0 0 0 0 0 0 0 0 0 0 0 0 0 0 0 0 0 0 0 0 0 0 0 0 0 0 0 0 0 0 0 0 0
0 0 0 0 0 0 0 0 0 0 0 0 0 0 0 0 0 0 0 0 0 0 0 0 0 0 0 0 0 0 0 0 0 0 0 0 0 0 0 0 0 0 0
0 0 0 0 0 0 0 0 0 0 0 0 0 0 0 0 0 0 0 0 0 0 0 0 0 0 0 0 0 0 0 0 0 0 0 0 0 0 0 0 0 0 0
0 0 0 0 0 0 0 0 0 0 0 0 0 0 0 0 0 0 0 0 0 0 0 0 0 0 0 0 0 0 0 0 0 0 0 0 0 0 0 0 0 0 0
0 0 0 0 0 0 0 0 0 0 0 0 0 0 0 0 0 0 0 0 0 0 0 0 0 0 0 0 0 0 0 0 0 0 0 0 0 0 0 0 0 0 0
0 0 0 0 0 0 0 0 0 0 0 0 0 0 0 0 0 0 0 0 0 0 0 0 0 0 0 0 0 0 0 0 0 0 0 0 0 0 0 0 0 0 0
0 0 0 0 0 0 0 0 0 0 0 0 0 0 0 0 0 0 0 0 0 0 0 0 0 0 0 0 0 0 0 0 0 0 0 0 0 0 0 0 0 0 0
0 0 0 0 0 0 0 0 0 0 0 0 0 0 0 0 0 0 0 0 0 0 0 0 0 0 0 0 0 0 0 0 0 0 0 0 0 0 0 0 0 0 0
0 0 0 0 0 0 0 0 0 0 0 0 0 0 0 0 0 0 0 0 0 0 0 0 0 0 0 0 0 0 0 0 0 0 0 0 0 0 0 0 0 0 0
0 0 0 0 0 0 0 0 0 0 0 0 0 0 0 0 0 0 0 0 0 0 0 0 0 0 0 0 0 0 0 0 0 0 0 0 0 0 0 0 0 0 0
0 0 0 0 0 0 0 0 0 0 0 0 0 0 0 0 0 0 0 0 0 0 0 0 0 0 0 0 0 0 0 0 0 0 0 0 0 0 0 0 0 0 0
0 0 0 0 0 0 0 0 0 0 0 0 0 0 0 0 0 0 0 0 0 0 0 0 0 0 0 0 0 0 0 0 0 0 0 0 0 0 0 0 0 0 0
0 0 0 0 0 0 0 0 0 0 0 1 1 1 0 0 0 0 0 0 0 0 0 0 0 0 0 0 0 0 0 0 0 0 0 0 0 0 0 0 0 0 0
0 0 0 0 0 0 0 0 0 0 1 2 2 2 1 0 0 0 0 0 0 0 0 0 0 0 0 0 0 0 0 0 0 0 0 0 0 0 0 0 0 0 0
0 0 0 0 0 0 0 0 0 0 2 3 3 3 2 1 1 0 0 0 0 0 0 0 0 0 0 0 0 0 0 0 0 0 0 0 0 0 0 0 0 0 0
0 0 0 0 0 0 0 0 0 0 1 2 3 3 3 3 2 1 0 0 0 0 0 0 0 0 0 0 0 0 0 0 0 0 0 0 0 0 0 0 0 0 0
0 0 0 0 0 0 0 0 0 0 0 1 2 3 3 3 3 2 1 1 1 0 0 0 0 0 0 0 0 0 0 0 0 0 0 0 0 0 0 0 0 0 0
0 0 0 0 0 0 0 0 0 0 0 0 1 2 2 2 3 3 3 2 2 1 1 0 0 0 0 0 0 0 0 0 0 0 0 0 0 0 0 0 0 0 0
0 0 0 0 0 0 0 0 0 0 0 0 0 1 1 1 1 2 3 3 3 3 2 1 1 0 0 0 0 0 0 0 0 0 0 0 0 0 0 0 0 0 0
0 0 0 0 0 0 0 0 0 0 0 0 0 0 0 0 0 1 2 3 3 3 3 3 2 1 0 0 0 0 0 0 0 0 0 0 0 0 0 0 0 0 0
0 0 0 0 0 0 0 0 0 0 0 0 0 0 0 0 0 0 1 3 3 3 3 3 3 2 1 0 0 0 0 0 0 0 0 0 0 0 0 0 0 0 0
Wind_Speed
4 4 9 11 12 12 12 12 12 12 12 12 12 12 13 13 13 13 13 13 14 14 14 14 14 14 14 14 14 14 14 14 14 14 13 13 14 14 14 14 12 8 14
7 6 10 11 12 12 12 12 11 11 11 11 11 12 12 12 13 13 13 13 13 13 13 13 13 13 13 12 12 12 12 12 12 12 12 11 12 13 13 13 12 8 13
8 7 8 10 12 12 12 11 11 11 11 11 11 11 11 12 12 12 12 11 11 12 12 12 12 12 11 11 11 11 11 10 11 11 10 6 6 11 12 12 12 12 12
8 7 8 10 12 12 12 11 11 10 11 11 11 11 11 11 11 11 11 10 10 10 10 10 11 10 10 10 9 9 9 9 9 9 5 4 4 9 11 11 10 10 11
7 6 8 11 12 12 12 11 10 10 10 10 10 10 10 10 10 10 10 9 9 9 9 9 9 9 9 9 9 8 9 9 9 7 4 4 4 7 9 9 9 9 9
6 6 7 11 12 12 11 11 11 10 10 9 9 9 9 9 9 9 8 8 8 8 8 8 8 7 7 8 8 8 8 8 7 4 4 3 3 6 8 8 8 8 8
7 6 7 10 11 11 11 11 11 10 9 9 9 9 9 8 8 8 8 7 7 7 7 6 6 6 6 6 7 7 7 7 4 3 3 2 2 4 5 6 6 6 7
7 6 6 9 10 10 10 10 10 10 9 9 8 8 8 8 8 8 7 7 7 6 5 5 5 4 4 4 5 5 5 4 3 2 1 2 2 2 3 3 4 4 5
6 6 5 5 7 9 9 9 9 9 8 8 7 7 6 6 7 7 6 6 6 6 5 4 3 3 2 3 3 4 4 4 2 1 1 1 3 2 1 1 1 2 2
5 5 5 5 5 5 5 8 8 8 8 8 7 6 6 5 5 5 5 5 6 5 5 4 2 1 1 1 2 2 2 2 1 1 1 3 4 3 2 1 1 0 0
6 6 5 5 5 5 5 6 7 8 8 8 6 7 5 3 3 3 4 4 5 5 5 4 4 2 0 1 2 2 1 0 0 1 2 5 6 5 4 3 3 3 2
10 8 6 6 6 5 4 4 3 4 4 4 4 5 3 3 2 3 4 5 5 5 5 5 4 2 1 1 2 2 1 1 1 2 3 7 7 7 6 5 5 5 5
9 8 8 8 6 6 4 4 3 2 3 4 5 5 4 3 2 2 1 2 2 3 2 3 2 1 1 1 1 1 2 2 2 2 4 8 9 9 8 7 7 7 7
8 9 8 8 7 7 5 4 4 3 3 3 4 5 4 3 3 3 2 2 2 2 2 2 2 2 3 3 3 3 3 2 3 2 4 9 10 11 11 10 10 9 9
9 10 9 9 9 8 7 5 5 5 5 5 4 5 5 4 4 4 3 3 3 2 3 3 3 3 4 4 4 4 4 5 4 4 3 8 11 12 13 13 13 12 12
11 11 9 10 10 9 8 7 6 6 6 5 5 6 7 5 5 5 4 4 4 4 4 4 4 4 4 3 4 5 5 5 5 5 5 6 11 13 14 15 15 15 14
10 9 10 10 10 10 10 9 7 6 6 6 7 7 8 7 6 5 5 5 5 4 4 4 4 3 4 4 5 5 5 5 5 6 6 5 6 10 14 16 16 16 16
8 9 10 9 10 11 10 9 7 7 7 7 6 6 9 9 8 6 5 6 5 4 4 4 4 4 4 4 4 5 4 5 7 7 6 6 6 6 9 15 17 17 18
10 9 9 10 11 11 10 8 7 7 8 7 6 7 8 9 9 8 7 6 5 5 5 5 5 4 5 5 5 5 5 6 7 7 8 8 8 7 6 10 14 15 18
8 8 9 9 10 9 7 6 5 6 7 7 7 8 9 8 10 9 7 7 6 5 6 6 6 6 5 4 5 6 6 7 7 7 9 8 7 8 7 7 7 9 15
7 9 10 10 10 7 5 6 7 8 7 7 7 8 9 9 10 10 7 7 7 7 8 8 6 6 6 3 3 5 6 7 8 8 7 6 7 7 6 7 6 5 6
9 9 10 11 9 10 8 6 4 4 4 6 6 8 10 10 10 9 10 8 8 7 8 8 8 5 4 5 4 2 5 4 4 5 5 5 6 4 5 6 6 7 6
8 10 9 10 10 10 9 5 3 2 2 3 6 7 9 10 10 9 10 9 8 9 8 9 9 9 7 5 7 5 4 4 4 3 4 4 4 4 5 5 7 7 7
9 7 8 8 8 8 8 7 9 8 8 7 5 5 5 8 9 10 10 10 9 8 9 9 9 9 8 7 5 8 7 4 3 5 3 3 4 5 5 5 6 7 7
6 5 6 6 6 6 7 9 9 9 8 4 3 4 5 6 8 9 9 9 10 9 10 9 9 10 9 9 7 5 8 8 8 7 8 5 3 4 5 6 6 6 7
4 3 4 4 4 4 6 7 9 10 8 6 5 5 5 4 5 8 8 9 9 9 10 10 10 11 10 10 9 7 6 6 7 8 10 8 7 5 6 6 6 7 6
Wind_Direction
166 166 151 141 138 131 126 123 120 117 115 114 112 109 107 106 103 101 99 95 93 92 91 90 87 84 81 76 73 71 70 67 64 64 65 69 71 71 70 67 63 55 64
150 156 149 144 140 134 129 127 125 124 121 119 117 114 110 107 104 101 99 98 96 96 96 95 92 88 83 78 76 77 74 70 66 64 60 59 66 70 70 68 68 66 67
140 147 145 143 141 137 135 132 132 130 128 125 122 119 115 112 109 105 104 102 102 101 101 100 97 91 83 78 77 79 77 74 71 67 57 34 50 70 70 69 67 66 68
142 143 144 143 143 142 141 139 138 136 134 131 128 125 123 120 116 112 110 108 107 106 106 105 100 93 84 76 75 81 79 80 76 68 46 31 33 67 70 69 67 66 67
137 138 144 146 148 148 147 146 144 142 141 139 135 132 130 126 123 120 118 115 113 111 110 109 104 97 86 77 75 80 85 85 78 64 45 32 26 64 70 70 68 66 65
137 139 150 151 153 154 155 153 151 150 149 146 144 141 138 133 130 128 126 123 120 118 115 114 109 101 89 78 75 80 86 88 75 58 43 26 15 62 73 76 73 71 69
145 146 156 157 158 160 162 161 160 160 157 153 151 150 145 142 141 138 135 133 130 125 121 120 115 105 92 79 75 81 87 92 83 61 39 13 12 60 74 78 75 71 67
152 152 157 163 162 164 168 167 167 167 165 162 159 159 155 153 154 152 148 145 143 138 135 131 125 111 96 82 73 80 90 91 86 64 29 350 352 46 71 79 78 74 65
153 153 160 164 167 170 172 171 171 170 169 168 168 162 159 158 158 156 156 159 160 158 155 151 144 129 110 87 73 75 90 96 89 43 348 321 319 345 30 89 92 80 71
165 167 168 168 168 169 173 177 177 175 173 172 169 160 157 159 158 160 163 174 178 177 176 175 175 170 135 60 55 65 87 88 69 346 315 292 296 301 301 273 230 229 202
188 187 181 179 177 173 175 181 181 181 180 176 171 168 159 152 155 164 182 187 190 191 194 200 208 217 242 1 7 20 56 70 269 278 277 281 283 284 284 265 256 257 261
199 197 193 192 187 180 182 174 178 180 180 177 170 170 163 162 173 182 206 209 206 204 210 219 225 233 253 343 333 351 339 275 256 262 266 276 277 278 279 264 261 258 259
201 200 199 197 193 187 184 176 181 179 178 182 182 178 170 169 179 189 198 228 228 222 222 241 248 243 245 253 274 274 264 261 251 258 267 274 274 275 274 266 262 260 259
201 206 202 197 196 197 191 188 188 190 192 194 193 186 176 179 191 197 203 209 212 212 218 226 234 247 255 258 259 264 262 252 247 248 257 267 271 272 273 269 266 263 260
210 211 205 197 199 198 196 198 198 202 203 202 197 195 189 191 199 202 208 209 212 209 213 221 231 245 255 261 260 259 262 256 252 247 253 259 264 267 270 271 269 266 262
216 215 206 203 202 198 201 204 204 204 206 204 206 204 198 199 201 203 210 213 216 212 213 217 225 236 248 254 263 260 258 258 253 250 246 255 257 261 264 268 270 269 267
221 214 208 207 202 202 206 207 207 206 204 210 213 208 204 204 204 204 209 215 217 211 213 221 233 237 249 253 259 259 257 254 252 251 248 245 250 255 258 262 266 268 268
221 217 213 206 203 206 208 206 207 206 206 213 213 210 210 208 204 204 211 219 211 203 206 216 223 233 243 246 256 259 254 254 253 250 247 244 241 245 251 256 260 262 265
220 219 215 208 206 208 207 206 207 206 211 213 211 212 212 211 208 208 215 216 203 205 211 217 219 217 237 245 251 256 252 252 254 252 250 246 240 238 238 250 251 254 259
222 217 216 212 212 205 200 202 206 213 218 216 215 215 210 210 208 210 217 213 202 210 217 217 224 220 229 240 258 264 257 252 250 248 250 249 242 238 237 239 244 250 253
223 217 216 214 211 195 190 198 207 219 218 217 218 214 211 211 208 211 217 212 208 217 222 217 219 227 232 208 249 277 265 247 248 249 247 247 246 241 235 235 237 239 251
226 224 221 219 212 202 203 196 193 191 207 213 212 215 214 213 210 212 217 216 211 219 223 219 213 219 220 187 202 265 296 303 272 248 244 244 248 241 237 235 234 236 237
230 226 223 220 214 208 202 182 169 166 191 201 215 221 218 215 214 215 218 219 217 216 225 221 215 219 231 209 199 208 243 265 304 280 246 241 243 238 240 238 237 238 237
234 230 225 223 216 208 192 191 195 204 217 220 216 216 211 210 217 218 221 221 223 223 227 224 217 218 224 229 209 215 226 222 252 293 273 246 239 240 242 239 240 240 236
237 228 224 218 214 202 192 197 202 217 228 227 207 214 217 215 217 220 222 224 227 228 230 227 221 220 221 229 221 208 223 230 229 251 276 271 251 234 233 234 237 241 238
250 229 216 202 208 194 192 197 203 216 224 224 224 227 228 223 222 224 224 227 231 232 233 231 228 226 226 228 229 221 213 217 220 230 253 266 269 250 231 230 234 239 239